| time (UTC) | temp F | wind direction | speed MPH | gust MPH | rain 1hr in | rain 24hr in | rain mn in | humidity % | barometer mb |
| 20260506185140 | 87 | 218 | 4.0 | 10.0 | 0.00 | 0.00 | 0.00 | 82 | 1008.8 |
| 20260506184636 | 87 | 161 | 4.0 | 10.0 | 0.00 | 0.00 | 0.00 | 81 | 1008.9 |
| 20260506184133 | 87 | 139 | 4.0 | 10.0 | 0.00 | 0.00 | 0.00 | 82 | 1009.0 |
| 20260506183902 | 86 | 120 | 3.0 | 8.0 | 0.00 | 0.00 | 0.00 | 83 | 1009.0 |
| 20260506183128 | 86 | 169 | 3.0 | 8.0 | 0.00 | 0.00 | 0.00 | 83 | 1009.1 |
| 20260506182623 | 85 | 134 | 4.0 | 8.0 | 0.00 | 0.00 | 0.00 | 84 | 1009.2 |
| 20260506182059 | 85 | 186 | 4.0 | 8.0 | 0.00 | 0.00 | 0.00 | 84 | 1009.3 |
| 20260506181805 | 85 | 149 | 4.0 | 8.0 | 0.00 | 0.00 | 0.00 | 85 | 1009.4 |
| 20260506181027 | 85 | 171 | 4.0 | 8.0 | 0.00 | 0.00 | 0.00 | 85 | 1009.4 |
| 20260506180525 | 85 | 249 | 3.0 | 7.0 | 0.00 | 0.00 | 0.00 | 85 | 1009.6 |
| 20260506175958 | 84 | 158 | 3.0 | 7.0 | 0.00 | 0.00 | 0.00 | 85 | 1009.7 |
| 20260506175431 | 84 | 197 | 3.0 | 7.0 | 0.00 | 0.00 | 0.00 | 85 | 1009.7 |
| 20260506174929 | 84 | 196 | 3.0 | 7.0 | 0.00 | 0.00 | 0.00 | 86 | 1009.8 |
| 20260506174401 | 84 | 164 | 4.0 | 9.0 | 0.00 | 0.00 | 0.00 | 86 | 1009.9 |
| 20260506173857 | 84 | 184 | 4.0 | 9.0 | 0.00 | 0.00 | 0.00 | 86 | 1010.0 |
| 20260506173627 | 84 | 187 | 4.0 | 10.0 | 0.00 | 0.00 | 0.00 | 87 | 1010.0 |
| 20260506172853 | 83 | 152 | 4.0 | 10.0 | 0.00 | 0.00 | 0.00 | 88 | 1010.1 |
| 20260506172327 | 83 | 197 | 4.0 | 9.0 | 0.00 | 0.00 | 0.00 | 88 | 1010.1 |
| 20260506171758 | 83 | 161 | 4.0 | 10.0 | 0.00 | 0.00 | 0.00 | 88 | 1010.1 |
| 20260506171256 | 83 | 152 | 5.0 | 10.0 | 0.00 | 0.00 | 0.00 | 90 | 1010.1 |
| 20260506170752 | 82 | 122 | 5.0 | 10.0 | 0.00 | 0.00 | 0.00 | 91 | 1010.2 |
| 20260506170225 | 82 | 146 | 4.0 | 9.0 | 0.00 | 0.00 | 0.00 | 91 | 1010.2 |
| 20260506165723 | 82 | 153 | 3.0 | 9.0 | 0.00 | 0.00 | 0.00 | 91 | 1010.4 |
| 20260506165159 | 82 | 139 | 3.0 | 8.0 | 0.00 | 0.00 | 0.00 | 91 | 1010.4 |
| 20260506164633 | 82 | 106 | 3.0 | 8.0 | 0.00 | 0.00 | 0.00 | 91 | 1010.3 |
| 20260506164108 | 81 | 137 | 4.0 | 10.0 | 0.00 | 0.00 | 0.00 | 91 | 1010.3 |
| 20260506163546 | 81 | 179 | 4.0 | 10.0 | 0.00 | 0.00 | 0.00 | 91 | 1010.3 |
| 20260506163048 | 81 | 141 | 4.0 | 9.0 | 0.00 | 0.00 | 0.00 | 92 | 1010.2 |
| 20260506162528 | 81 | 156 | 2.0 | 9.0 | 0.00 | 0.00 | 0.00 | 92 | 1010.1 |
| 20260506162006 | 81 | 108 | 2.0 | 8.0 | 0.00 | 0.00 | 0.00 | 93 | 1010.1 |
| 20260506161455 | 80 | 148 | 3.0 | 8.0 | 0.00 | 0.00 | 0.00 | 92 | 1009.9 |
| 20260506161225 | 80 | 174 | 3.0 | 8.0 | 0.00 | 0.00 | 0.00 | 92 | 1010.1 |
| 20260506160444 | 80 | 130 | 3.0 | 8.0 | 0.00 | 0.00 | 0.00 | 92 | 1010.0 |
| 20260506155941 | 81 | 136 | 3.0 | 8.0 | 0.00 | 0.00 | 0.00 | 91 | 1010.0 |
| 20260506155439 | 81 | 144 | 3.0 | 8.0 | 0.00 | 0.00 | 0.00 | 91 | 1009.9 |
| 20260506154939 | 81 | 149 | 3.0 | 7.0 | 0.00 | 0.00 | 0.00 | 91 | 1009.9 |
| 20260506154443 | 81 | 173 | 2.0 | 7.0 | 0.00 | 0.00 | 0.00 | 91 | 1009.8 |
| 20260506153920 | 81 | 131 | 2.0 | 7.0 | 0.00 | 0.00 | 0.00 | 91 | 1009.8 |
| 20260506153648 | 81 | 127 | 3.0 | 7.0 | 0.00 | 0.00 | 0.00 | 91 | 1009.9 |
| 20260506152918 | 81 | 172 | 3.0 | 10.0 | 0.00 | 0.00 | 0.00 | 91 | 1009.7 |
| 20260506152353 | 81 | 169 | 3.0 | 8.0 | 0.00 | 0.00 | 0.00 | 91 | 1009.6 |
| 20260506152126 | 80 | 189 | 3.0 | 7.0 | 0.00 | 0.00 | 0.00 | 92 | 1009.5 |
| 20260506151327 | 80 | 138 | 4.0 | 8.0 | 0.00 | 0.00 | 0.00 | 92 | 1009.5 |
| 20260506150803 | 80 | 127 | 3.0 | 10.0 | 0.00 | 0.00 | 0.00 | 92 | 1009.5 |
| 20260506150304 | 80 | 137 | 3.0 | 10.0 | 0.00 | 0.00 | 0.00 | 92 | 1009.3 |
| 20260506150018 | 80 | 169 | 4.0 | 9.0 | 0.00 | 0.00 | 0.00 | 92 | 1009.3 |
| 20260506145244 | 80 | 141 | 4.0 | 9.0 | 0.00 | 0.00 | 0.00 | 92 | 1009.2 |
| 20260506144951 | 80 | 154 | 4.0 | 8.0 | 0.00 | 0.00 | 0.00 | 93 | 1009.1 |
| 20260506144154 | 80 | 167 | 4.0 | 9.0 | 0.00 | 0.00 | 0.00 | 93 | 1009.0 |
| 20260506143921 | 80 | 142 | 4.0 | 9.0 | 0.00 | 0.00 | 0.00 | 93 | 1009.0 |
| 20260506143145 | 80 | 177 | 5.0 | 14.0 | 0.00 | 0.00 | 0.00 | 94 | 1009.0 |
| 20260506142619 | 79 | 137 | 6.0 | 14.0 | 0.00 | 0.00 | 0.00 | 94 | 1008.9 |
| 20260506142118 | 79 | 148 | 5.0 | 12.0 | 0.00 | 0.00 | 0.00 | 94 | 1008.9 |
| 20260506141550 | 79 | 146 | 5.0 | 10.0 | 0.00 | 0.00 | 0.00 | 95 | 1009.0 |
| 20260506141048 | 79 | 157 | 5.0 | 10.0 | 0.00 | 0.00 | 0.00 | 95 | 1009.1 |
| 20260506140520 | 79 | 114 | 4.0 | 10.0 | 0.00 | 0.00 | 0.00 | 96 | 1009.1 |
| 20260506140017 | 79 | 139 | 4.0 | 9.0 | 0.00 | 0.00 | 0.00 | 96 | 1009.1 |
| 20260506135450 | 78 | 166 | 4.0 | 9.0 | 0.00 | 0.00 | 0.00 | 97 | 1009.1 |
| 20260506134947 | 78 | 136 | 4.0 | 9.0 | 0.00 | 0.00 | 0.00 | 97 | 1009.2 |
| 20260506134421 | 78 | 127 | 3.0 | 8.0 | 0.00 | 0.00 | 0.00 | 97 | 1009.2 |
| 20260506133918 | 78 | 131 | 3.0 | 8.0 | 0.00 | 0.00 | 0.00 | 97 | 1009.2 |
| 20260506133350 | 78 | 158 | 2.0 | 8.0 | 0.00 | 0.00 | 0.00 | 98 | 1009.2 |
| 20260506132848 | 78 | 126 | 1.0 | 5.0 | 0.00 | 0.00 | 0.00 | 98 | 1009.3 |
| 20260506132320 | 78 | 126 | 2.0 | 5.0 | 0.00 | 0.00 | 0.00 | 98 | 1009.3 |
| 20260506131818 | 77 | 129 | 2.0 | 8.0 | 0.00 | 0.00 | 0.00 | 98 | 1009.2 |
| 20260506131314 | 77 | 125 | 2.0 | 8.0 | 0.00 | 0.00 | 0.00 | 98 | 1009.3 |
| 20260506130811 | 77 | 178 | 2.0 | 7.0 | 0.00 | 0.00 | 0.00 | 98 | 1009.4 |
| 20260506130244 | 77 | 133 | 2.0 | 7.0 | 0.00 | 0.00 | 0.00 | 99 | 1009.4 |
| 20260506130013 | 77 | 133 | 2.0 | 5.0 | 0.00 | 0.00 | 0.00 | 99 | 1009.4 |
| 20260506125214 | 77 | 135 | 2.0 | 5.0 | 0.00 | 0.00 | 0.00 | 99 | 1009.3 |
| 20260506124711 | 77 | 146 | 1.0 | 4.0 | 0.00 | 0.00 | 0.00 | 99 | 1009.3 |
| 20260506124650 | 77 | 168 | 1.0 | 9.0 | 0.00 | 0.00 | 0.00 | 99 | 1009.3 |
| 20260506123641 | 77 | 172 | 3.0 | 9.0 | 0.00 | 0.00 | 0.00 | 99 | 1009.2 |
| 20260506123115 | 77 | 141 | 3.0 | 9.0 | 0.00 | 0.00 | 0.00 | 99 | 1009.2 |
| 20260506122612 | 77 | 127 | 3.0 | 9.0 | 0.00 | 0.00 | 0.00 | 99 | 1009.2 |
| 20260506122108 | 77 | 141 | 2.0 | 7.0 | 0.00 | 0.00 | 0.00 | 99 | 1009.1 |
| 20260506121837 | 77 | 155 | 2.0 | 5.0 | 0.00 | 0.00 | 0.00 | 99 | 1009.0 |
| 20260506121038 | 76 | 158 | 1.0 | 5.0 | 0.00 | 0.00 | 0.00 | 99 | 1008.9 |
| 20260506120535 | 76 | 127 | 2.0 | 6.0 | 0.00 | 0.00 | 0.00 | 99 | 1008.8 |
| 20260506120016 | 76 | 171 | 2.0 | 7.0 | 0.00 | 0.00 | 0.00 | 99 | 1008.8 |
| 20260506115506 | 76 | 160 | 2.0 | 7.0 | 0.00 | 0.00 | 0.00 | 99 | 1008.7 |
| 20260506114940 | 76 | 152 | 3.0 | 11.0 | 0.00 | 0.00 | 0.00 | 99 | 1008.6 |
| 20260506114415 | 76 | 151 | 4.0 | 11.0 | 0.00 | 0.00 | 0.00 | 99 | 1008.5 |
| 20260506113844 | 76 | 163 | 4.0 | 10.0 | 0.00 | 0.00 | 0.00 | 99 | 1008.5 |
| 20260506113341 | 76 | 149 | 4.0 | 8.0 | 0.00 | 0.00 | 0.00 | 99 | 1008.4 |
| 20260506112814 | 76 | 162 | 3.0 | 8.0 | 0.00 | 0.00 | 0.00 | 99 | 1008.3 |
| 20260506112311 | 76 | 177 | 3.0 | 8.0 | 0.00 | 0.00 | 0.00 | 99 | 1008.3 |
| 20260506111745 | 76 | 122 | 3.0 | 8.0 | 0.00 | 0.00 | 0.00 | 99 | 1008.2 |
| 20260506111224 | 76 | 135 | 3.0 | 10.0 | 0.00 | 0.00 | 0.00 | 99 | 1008.1 |
| 20260506110721 | 76 | 185 | 3.0 | 10.0 | 0.00 | 0.00 | 0.00 | 99 | 1008.1 |
| 20260506110157 | 76 | 183 | 4.0 | 10.0 | 0.00 | 0.00 | 0.00 | 99 | 1008.1 |
| 20260506105655 | 76 | 182 | 4.0 | 10.0 | 0.00 | 0.00 | 0.00 | 99 | 1008.0 |
| 20260506105157 | 76 | 140 | 4.0 | 10.0 | 0.00 | 0.00 | 0.00 | 99 | 1007.9 |
| 20260506104657 | 76 | 133 | 4.0 | 9.0 | 0.00 | 0.00 | 0.00 | 99 | 1007.9 |
| 20260506104137 | 76 | 147 | 4.0 | 8.0 | 0.00 | 0.00 | 0.00 | 99 | 1007.9 |
| 20260506103636 | 76 | 170 | 4.0 | 9.0 | 0.00 | 0.00 | 0.00 | 99 | 1008.0 |
| 20260506103119 | 76 | 156 | 4.0 | 9.0 | 0.00 | 0.00 | 0.00 | 99 | 1007.9 |
| 20260506102559 | 76 | 131 | 4.0 | 9.0 | 0.00 | 0.00 | 0.00 | 99 | 1007.9 |
| 20260506102057 | 76 | 156 | 4.0 | 9.0 | 0.00 | 0.00 | 0.00 | 99 | 1007.9 |
| 20260506101558 | 76 | 133 | 4.0 | 12.0 | 0.00 | 0.00 | 0.00 | 99 | 1007.9 |
| 20260506101057 | 76 | 174 | 4.0 | 12.0 | 0.00 | 0.00 | 0.00 | 98 | 1007.8 |
| 20260506100555 | 76 | 148 | 5.0 | 12.0 | 0.00 | 0.00 | 0.00 | 98 | 1007.9 |
| 20260506100030 | 76 | 168 | 5.0 | 12.0 | 0.00 | 0.00 | 0.00 | 98 | 1007.9 |
| 20260506095743 | 76 | 145 | 5.0 | 11.0 | 0.00 | 0.00 | 0.00 | 98 | 1007.8 |
| 20260506095017 | 76 | 180 | 4.0 | 11.0 | 0.00 | 0.00 | 0.00 | 98 | 1007.7 |
| 20260506094452 | 76 | 178 | 3.0 | 8.0 | 0.00 | 0.00 | 0.00 | 98 | 1007.7 |
| 20260506093956 | 76 | 144 | 3.0 | 7.0 | 0.00 | 0.00 | 0.00 | 97 | 1007.7 |
| 20260506093935 | 76 | 142 | 3.0 | 8.0 | 0.00 | 0.00 | 0.00 | 97 | 1007.8 |
| 20260506092913 | 76 | 154 | 3.0 | 8.0 | 0.00 | 0.00 | 0.00 | 97 | 1007.7 |
| 20260506092850 | 76 | 170 | 2.0 | 8.0 | 0.00 | 0.00 | 0.00 | 97 | 1007.7 |
| 20260506092115 | 77 | 153 | 2.0 | 6.0 | 0.00 | 0.00 | 0.00 | 97 | 1007.8 |
| 20260506091317 | 77 | 161 | 2.0 | 6.0 | 0.00 | 0.00 | 0.00 | 97 | 1007.9 |
| 20260506090752 | 77 | 164 | 4.0 | 9.0 | 0.00 | 0.00 | 0.00 | 96 | 1007.9 |
| 20260506090253 | 77 | 161 | 4.0 | 9.0 | 0.00 | 0.00 | 0.00 | 96 | 1008.0 |
| 20260506090245 | 77 | 147 | 4.0 | 9.0 | 0.00 | 0.00 | 0.00 | 96 | 1008.0 |
| 20260506085239 | 77 | 166 | 4.0 | 10.0 | 0.00 | 0.00 | 0.00 | 96 | 1008.0 |
| 20260506084735 | 77 | 118 | 4.0 | 10.0 | 0.00 | 0.00 | 0.00 | 96 | 1008.1 |
| 20260506084212 | 77 | 198 | 3.0 | 8.0 | 0.00 | 0.00 | 0.00 | 96 | 1008.1 |
| 20260506083644 | 77 | 199 | 3.0 | 8.0 | 0.00 | 0.00 | 0.00 | 96 | 1008.1 |
| 20260506083119 | 77 | 156 | 3.0 | 8.0 | 0.00 | 0.00 | 0.00 | 96 | 1008.3 |
| 20260506083054 | 77 | 177 | 3.0 | 10.0 | 0.00 | 0.00 | 0.00 | 96 | 1008.2 |
| 20260506082048 | 77 | 150 | 3.0 | 10.0 | 0.00 | 0.00 | 0.00 | 96 | 1008.2 |
| 20260506081535 | 77 | 156 | 3.0 | 10.0 | 0.00 | 0.00 | 0.00 | 96 | 1008.3 |
| 20260506081032 | 77 | 154 | 4.0 | 10.0 | 0.00 | 0.00 | 0.00 | 96 | 1008.4 |
| 20260506080505 | 77 | 114 | 4.0 | 12.0 | 0.00 | 0.00 | 0.00 | 96 | 1008.3 |
| 20260506073316 | 78 | 178 | 4.0 | 10.0 | 0.00 | 0.00 | 0.00 | 95 | 1008.5 |
| 20260506073046 | 78 | 131 | 3.0 | 8.0 | 0.00 | 0.00 | 0.00 | 95 | 1008.5 |
| 20260506072314 | 78 | 118 | 4.0 | 8.0 | 0.00 | 0.00 | 0.00 | 95 | 1008.7 |
| 20260506071813 | 78 | 218 | 3.0 | 8.0 | 0.00 | 0.00 | 0.00 | 95 | 1008.7 |
| 20260506071313 | 78 | 154 | 3.0 | 9.0 | 0.00 | 0.00 | 0.00 | 95 | 1008.7 |
| 20260506070811 | 78 | 179 | 3.0 | 9.0 | 0.00 | 0.00 | 0.00 | 95 | 1008.7 |
| 20260506070310 | 78 | 159 | 4.0 | 14.0 | 0.00 | 0.00 | 0.00 | 95 | 1008.8 |
| 20260506062054 | 78 | 142 | 3.0 | 7.0 | 0.00 | 0.00 | 0.00 | 95 | 1009.0 |
| 20260506061551 | 78 | 173 | 3.0 | 8.0 | 0.00 | 0.00 | 0.00 | 95 | 1009.0 |
| 20260506061047 | 78 | 163 | 3.0 | 8.0 | 0.00 | 0.00 | 0.00 | 95 | 1009.0 |
| 20260506060545 | 78 | 168 | 4.0 | 13.0 | 0.00 | 0.00 | 0.00 | 95 | 1009.1 |
| 20260506051315 | 78 | 162 | 6.0 | 12.0 | 0.00 | 0.00 | 0.00 | 94 | 1008.9 |
| 20260506050749 | 78 | 143 | 5.0 | 12.0 | 0.00 | 0.00 | 0.00 | 95 | 1009.0 |
| 20260506050246 | 78 | 170 | 5.0 | 12.0 | 0.00 | 0.00 | 0.00 | 95 | 1009.0 |
| 20260506050235 | 78 | 141 | 4.0 | 9.0 | 0.00 | 0.00 | 0.00 | 95 | 1009.0 |
| 20260506044627 | 77 | 150 | 4.0 | 10.0 | 0.00 | 0.00 | 0.00 | 95 | 1009.1 |
| 20260506044154 | 77 | 174 | 4.0 | 10.0 | 0.00 | 0.00 | 0.00 | 95 | 1009.0 |
| 20260506043558 | 77 | 144 | 4.0 | 10.0 | 0.00 | 0.00 | 0.00 | 95 | 1008.9 |
| 20260506043302 | 77 | 116 | 4.0 | 10.0 | 0.00 | 0.00 | 0.00 | 95 | 1008.9 |
| 20260506042528 | 78 | 181 | 3.0 | 10.0 | 0.00 | 0.00 | 0.00 | 95 | 1008.8 |
| 20260506042007 | 78 | 159 | 3.0 | 9.0 | 0.00 | 0.00 | 0.00 | 95 | 1008.9 |
| 20260506041437 | 78 | 204 | 3.0 | 12.0 | 0.00 | 0.00 | 0.00 | 95 | 1009.0 |
| 20260506040932 | 78 | 156 | 4.0 | 11.0 | 0.00 | 0.00 | 0.00 | 95 | 1009.0 |
| 20260506040639 | 78 | 156 | 4.0 | 12.0 | 0.00 | 0.00 | 0.00 | 94 | 1008.9 |
| 20260506035839 | 78 | 115 | 4.0 | 14.0 | 0.00 | 0.00 | 0.00 | 94 | 1008.9 |
| 20260506035608 | 78 | 139 | 5.0 | 14.0 | 0.00 | 0.00 | 0.00 | 94 | 1008.8 |
| 20260506034810 | 78 | 177 | 6.0 | 15.0 | 0.00 | 0.00 | 0.00 | 94 | 1008.7 |
| 20260506034243 | 78 | 145 | 6.0 | 15.0 | 0.00 | 0.00 | 0.00 | 93 | 1008.6 |
| 20260506033740 | 78 | 200 | 5.0 | 11.0 | 0.00 | 0.00 | 0.00 | 93 | 1008.6 |
| 20260506033213 | 78 | 177 | 6.0 | 12.0 | 0.00 | 0.00 | 0.00 | 93 | 1008.5 |
| 20260506032711 | 78 | 149 | 6.0 | 12.0 | 0.00 | 0.00 | 0.00 | 93 | 1008.4 |
| 20260506032144 | 78 | 116 | 5.0 | 12.0 | 0.00 | 0.00 | 0.00 | 93 | 1008.4 |
| 20260506031640 | 78 | 179 | 5.0 | 13.0 | 0.00 | 0.00 | 0.00 | 93 | 1008.4 |
| 20260506031114 | 78 | 159 | 4.0 | 13.0 | 0.00 | 0.00 | 0.00 | 93 | 1008.4 |
| 20260506030548 | 78 | 169 | 4.0 | 9.0 | 0.00 | 0.00 | 0.00 | 93 | 1008.3 |
| 20260506030047 | 78 | 187 | 5.0 | 12.0 | 0.00 | 0.00 | 0.00 | 93 | 1008.3 |
| 20260506025518 | 78 | 140 | 5.0 | 12.0 | 0.00 | 0.00 | 0.00 | 93 | 1008.2 |
| 20260506024951 | 78 | 153 | 5.0 | 12.0 | 0.00 | 0.00 | 0.00 | 92 | 1008.1 |
| 20260506024448 | 79 | 149 | 6.0 | 12.0 | 0.00 | 0.00 | 0.00 | 92 | 1008.1 |
| 20260506023923 | 79 | 182 | 6.0 | 12.0 | 0.00 | 0.00 | 0.00 | 92 | 1008.0 |
| 20260506023358 | 79 | 156 | 5.0 | 12.0 | 0.00 | 0.00 | 0.00 | 91 | 1007.9 |
| 20260506022853 | 79 | 119 | 5.0 | 11.0 | 0.00 | 0.00 | 0.00 | 91 | 1007.8 |
| 20260506022557 | 79 | 223 | 5.0 | 11.0 | 0.00 | 0.00 | 0.00 | 91 | 1007.7 |
| 20260506021757 | 79 | 143 | 5.0 | 10.0 | 0.00 | 0.00 | 0.00 | 91 | 1007.6 |
| 20260506021254 | 79 | 158 | 4.0 | 9.0 | 0.00 | 0.00 | 0.00 | 91 | 1007.6 |
| 20260506020758 | 79 | 160 | 5.0 | 12.0 | 0.00 | 0.00 | 0.00 | 91 | 1007.5 |
| 20260506020252 | 79 | 166 | 7.0 | 14.0 | 0.00 | 0.00 | 0.00 | 90 | 1007.5 |
| 20260506015728 | 79 | 120 | 5.0 | 14.0 | 0.00 | 0.00 | 0.00 | 90 | 1007.5 |
| 20260506015456 | 80 | 141 | 4.0 | 8.0 | 0.00 | 0.00 | 0.00 | 90 | 1007.4 |
| 20260506014705 | 80 | 159 | 4.0 | 10.0 | 0.00 | 0.00 | 0.00 | 90 | 1007.3 |
| 20260506014206 | 80 | 166 | 3.0 | 9.0 | 0.00 | 0.00 | 0.00 | 89 | 1007.2 |
| 20260506013911 | 80 | 189 | 4.0 | 10.0 | 0.00 | 0.00 | 0.00 | 89 | 1007.1 |
| 20260506013122 | 80 | 198 | 5.0 | 10.0 | 0.00 | 0.00 | 0.00 | 89 | 1007.0 |
| 20260506012621 | 80 | 183 | 5.0 | 9.0 | 0.00 | 0.00 | 0.00 | 89 | 1006.9 |
| 20260506011542 | 80 | 179 | 6.0 | 14.0 | 0.00 | 0.00 | 0.00 | 88 | 1006.8 |
| 20260506011042 | 80 | 183 | 4.0 | 12.0 | 0.00 | 0.00 | 0.00 | 88 | 1006.8 |
| 20260506010525 | 80 | 150 | 4.0 | 12.0 | 0.00 | 0.00 | 0.00 | 88 | 1006.7 |
| 20260506010229 | 80 | 154 | 5.0 | 12.0 | 0.00 | 0.00 | 0.00 | 87 | 1006.7 |
| 20260506005459 | 80 | 172 | 6.0 | 12.0 | 0.00 | 0.00 | 0.00 | 87 | 1006.7 |
| 20260506004934 | 80 | 125 | 6.0 | 12.0 | 0.00 | 0.00 | 0.00 | 87 | 1006.7 |
| 20260506004412 | 81 | 158 | 6.0 | 14.0 | 0.00 | 0.00 | 0.00 | 86 | 1006.6 |
| 20260506003858 | 81 | 120 | 6.0 | 14.0 | 0.00 | 0.00 | 0.00 | 86 | 1006.5 |
| 20260506003353 | 81 | 184 | 5.0 | 12.0 | 0.00 | 0.00 | 0.00 | 86 | 1006.4 |
| 20260506002900 | 81 | 166 | 7.0 | 16.0 | 0.00 | 0.00 | 0.00 | 85 | 1006.4 |
| 20260506002336 | 81 | 176 | 8.0 | 16.0 | 0.00 | 0.00 | 0.00 | 85 | 1006.4 |
| 20260506001834 | 81 | 183 | 7.0 | 15.0 | 0.00 | 0.00 | 0.00 | 85 | 1006.4 |
| 20260506001333 | 81 | 159 | 7.0 | 13.0 | 0.00 | 0.00 | 0.00 | 85 | 1006.5 |
| 20260506000829 | 81 | 158 | 7.0 | 12.0 | 0.00 | 0.00 | 0.00 | 85 | 1006.5 |
| 20260506000302 | 81 | 198 | 7.0 | 13.0 | 0.00 | 0.00 | 0.00 | 84 | 1006.3 |
| 20260505235734 | 81 | 178 | 9.0 | 18.0 | 0.00 | 0.00 | 0.00 | 84 | 1006.4 |
| 20260505235233 | 81 | 166 | 8.0 | 18.0 | 0.00 | 0.00 | 0.00 | 84 | 1006.4 |
| 20260505234727 | 82 | 164 | 6.0 | 14.0 | 0.00 | 0.00 | 0.00 | 84 | 1006.4 |
| 20260505234202 | 82 | 146 | 6.0 | 14.0 | 0.00 | 0.00 | 0.00 | 84 | 1006.3 |
| 20260505233637 | 82 | 133 | 6.0 | 12.0 | 0.00 | 0.00 | 0.00 | 84 | 1006.4 |
| 20260505233107 | 82 | 174 | 6.0 | 12.0 | 0.00 | 0.00 | 0.00 | 84 | 1006.4 |
| 20260505232606 | 82 | 180 | 5.0 | 10.0 | 0.00 | 0.00 | 0.00 | 84 | 1006.3 |
| 20260505232039 | 82 | 185 | 6.0 | 14.0 | 0.00 | 0.00 | 0.00 | 84 | 1006.4 |
| 20260505231742 | 82 | 181 | 6.0 | 14.0 | 0.00 | 0.00 | 0.00 | 84 | 1006.4 |
| 20260505231009 | 82 | 180 | 6.0 | 15.0 | 0.00 | 0.00 | 0.00 | 84 | 1006.4 |
| 20260505230442 | 82 | 166 | 7.0 | 15.0 | 0.00 | 0.00 | 0.00 | 84 | 1006.5 |
| 20260505225940 | 82 | 182 | 7.0 | 18.0 | 0.00 | 0.00 | 0.00 | 84 | 1006.5 |
| 20260505225413 | 82 | 184 | 7.0 | 18.0 | 0.00 | 0.00 | 0.00 | 84 | 1006.4 |
| 20260505224847 | 82 | 213 | 7.0 | 15.0 | 0.00 | 0.00 | 0.00 | 83 | 1006.4 |
| 20260505224615 | 82 | 166 | 7.0 | 15.0 | 0.00 | 0.00 | 0.00 | 84 | 1006.5 |
| 20260505223840 | 82 | 214 | 7.0 | 15.0 | 0.00 | 0.00 | 0.00 | 84 | 1006.4 |
| 20260505223338 | 82 | 162 | 7.0 | 16.0 | 0.00 | 0.00 | 0.00 | 84 | 1006.4 |
| 20260505222811 | 83 | 176 | 6.0 | 16.0 | 0.00 | 0.00 | 0.00 | 84 | 1006.4 |
| 20260505222245 | 83 | 206 | 7.0 | 16.0 | 0.00 | 0.00 | 0.00 | 84 | 1006.5 |
| 20260505221718 | 83 | 150 | 7.0 | 16.0 | 0.00 | 0.00 | 0.00 | 84 | 1006.5 |
| 20260505221214 | 83 | 173 | 7.0 | 14.0 | 0.00 | 0.00 | 0.00 | 84 | 1006.6 |
| 20260505220648 | 83 | 125 | 7.0 | 16.0 | 0.00 | 0.00 | 0.00 | 83 | 1006.6 |
| 20260505220121 | 83 | 192 | 7.0 | 16.0 | 0.00 | 0.00 | 0.00 | 83 | 1006.6 |
| 20260505215553 | 83 | 185 | 7.0 | 15.0 | 0.00 | 0.00 | 0.00 | 83 | 1006.7 |
| 20260505215026 | 83 | 171 | 8.0 | 15.0 | 0.00 | 0.00 | 0.00 | 83 | 1006.8 |
| 20260505214523 | 83 | 160 | 8.0 | 15.0 | 0.00 | 0.00 | 0.00 | 82 | 1006.8 |
| 20260505214000 | 84 | 231 | 7.0 | 15.0 | 0.00 | 0.00 | 0.00 | 82 | 1006.9 |
| 20260505213430 | 84 | 218 | 6.0 | 15.0 | 0.00 | 0.00 | 0.00 | 82 | 1006.8 |
| 20260505212926 | 84 | 177 | 6.0 | 11.0 | 0.00 | 0.00 | 0.00 | 83 | 1006.8 |
| 20260505212405 | 83 | 127 | 5.0 | 17.0 | 0.00 | 0.00 | 0.00 | 83 | 1006.9 |
| 20260505212131 | 83 | 177 | 7.0 | 17.0 | 0.00 | 0.00 | 0.00 | 84 | 1006.9 |
| 20260505211356 | 83 | 231 | 8.0 | 19.0 | 0.00 | 0.00 | 0.00 | 83 | 1007.0 |
| 20260505210830 | 84 | 173 | 8.0 | 19.0 | 0.00 | 0.00 | 0.00 | 82 | 1007.0 |
| 20260505210302 | 84 | 170 | 7.0 | 14.0 | 0.00 | 0.00 | 0.00 | 83 | 1007.2 |
| 20260505205758 | 84 | 196 | 6.0 | 15.0 | 0.00 | 0.00 | 0.00 | 82 | 1007.2 |
| 20260505205253 | 83 | 231 | 6.0 | 15.0 | 0.00 | 0.00 | 0.00 | 83 | 1007.3 |
| 20260505204751 | 83 | 226 | 8.0 | 15.0 | 0.00 | 0.00 | 0.00 | 83 | 1007.3 |
| 20260505204458 | 83 | 175 | 8.0 | 15.0 | 0.00 | 0.00 | 0.00 | 83 | 1007.2 |
| 20260505203722 | 83 | 213 | 7.0 | 15.0 | 0.00 | 0.00 | 0.00 | 84 | 1007.3 |
| 20260505203221 | 83 | 191 | 7.0 | 15.0 | 0.00 | 0.00 | 0.00 | 84 | 1007.6 |
| 20260505202656 | 83 | 200 | 7.0 | 15.0 | 0.00 | 0.00 | 0.00 | 83 | 1007.6 |
| 20260505202130 | 83 | 168 | 7.0 | 14.0 | 0.00 | 0.00 | 0.00 | 83 | 1007.7 |
| 20260505201903 | 84 | 183 | 6.0 | 14.0 | 0.00 | 0.00 | 0.00 | 82 | 1007.8 |
| 20260505201106 | 84 | 196 | 5.0 | 15.0 | 0.00 | 0.00 | 0.00 | 83 | 1007.9 |
| 20260505200607 | 84 | 208 | 6.0 | 15.0 | 0.00 | 0.00 | 0.00 | 82 | 1007.8 |
| 20260505200043 | 83 | 256 | 6.0 | 14.0 | 0.00 | 0.00 | 0.00 | 82 | 1007.9 |
| 20260505195546 | 83 | 210 | 7.0 | 14.0 | 0.00 | 0.00 | 0.00 | 82 | 1007.9 |
| 20260505195020 | 83 | 199 | 7.0 | 14.0 | 0.00 | 0.00 | 0.00 | 82 | 1008.0 |
| 20260505194514 | 83 | 214 | 6.0 | 14.0 | 0.00 | 0.00 | 0.00 | 82 | 1008.1 |
| 20260505194008 | 83 | 195 | 6.0 | 17.0 | 0.00 | 0.00 | 0.00 | 83 | 1008.1 |
| 20260505193459 | 83 | 230 | 7.0 | 15.0 | 0.00 | 0.00 | 0.00 | 83 | 1008.2 |
| 20260505193454 | 83 | 194 | 7.0 | 17.0 | 0.00 | 0.00 | 0.00 | 83 | 1008.1 |
| 20260505192442 | 83 | 170 | 6.0 | 15.0 | 0.00 | 0.00 | 0.00 | 84 | 1008.3 |
| 20260505191947 | 82 | 213 | 6.0 | 13.0 | 0.00 | 0.00 | 0.00 | 85 | 1008.3 |
| 20260505191410 | 82 | 198 | 6.0 | 13.0 | 0.00 | 0.00 | 0.00 | 85 | 1008.4 |
| 20260505190908 | 82 | 198 | 7.0 | 11.0 | 0.00 | 0.00 | 0.00 | 85 | 1008.4 |
| 20260505190350 | 82 | 191 | 7.0 | 15.0 | 0.00 | 0.00 | 0.00 | 85 | 1008.4 |
| 20260505185836 | 82 | 189 | 7.0 | 15.0 | 0.00 | 0.00 | 0.00 | 85 | 1008.5 |
| 20260505185334 | 82 | 200 | 7.0 | 14.0 | 0.00 | 0.00 | 0.00 | 85 | 1008.5 |